Location: Newark
(45.8667°N, 9.7333°E)
Time: 01:28:06
(UTC+00:00)

Vanguard 3 - Pass Details

Date: 26 January 2020
Orbit: 508 x 3263 km, 33.3° (Epoch: 21 February)

Event Time Altitude Azimuth Distance (km) Brightness Sun altitude
Rises 21:19:19 0° 274° (W) 7,100 12.5 -51.2°
Reaches altitude 10° 21:24:59 10° 267° (W) 5,849 11.8 -52.0°
Enters shadow 21:35:45 31° 235° (SW) 3,668 10.3 -53.5°
Maximum altitude 21:39:13 35° 212° (SSW) 3,248 - -54.0°
Drops below altitude 10° 21:48:36 10° 151° (SSE) 3,846 - -55.2°
Sets 21:51:30 0° 142° (SE) 4,487 - -55.6°
